STARLINK-1946 (46776 NORAD) Tracking and Keplerian Element Data

This shows tracking and keplerian element data for the satellite.

Feedback or suggestion? Click here.




ElementValue
Catalog46776
NameSTARLINK-1946
Epoch Orbit182
Epoch Day330.91667824
Epoch Year2020
RAAN2.3398
Inclination53.0549
Eccentricity0.0001233
Argument of Perigee62.7836
Mean Anonmoly343.1862
Mean Motion15.47661083
Decay Rate-0.01079961
L11 46776U 20074AP 20330.91667824 -.01079961 00000-0 -22712-1 0 9994
L22 46776 53.0549 2.3398 0001233 62.7836 343.1862 15.47661083 1823

Live tracking and technical data element details for STARLINK-1946 (NORAD 46776). STARLINK-1946 can be tracked NOW for your location showing map with azimuth and elevation plus other details from your city location.

Track the satellite on the map from your city or location and see movement details for azimuth, elevation, latitude, longitude, range, height, and movement on the map or in text.







IsCatalogInMostPopularTable: catalog: 46776, numindb: 6
Update: records affected: 1



GetName: 46776 STARLINK-1946

Hit Count: updated at: Thu, 26 Nov 2020 18:07:21 GMT